Weather History for Bridgeport, CT

Change the Weather History Date:

Tuesday, November 13, 2012

  Actual Average Record
Temperature  
Mean Temperature 49 °F 46 °F  
Max Temperature 60 °F 54 °F 67 °F (1964)
Min Temperature 38 °F 39 °F 23 °F (1986)
Degree Days  
Heating Degree Days 16 19  
Month to date heating degree days 255 219  
Since 1 July heating degree days 508 609  
Cooling Degree Days 0 0  
Month to date cooling degree days 0 0  
Year to date cooling degree days 1075 825  
Moisture  
Dew Point 45 °F    
Average Humidity 80    
Maximum Humidity 100    
Minimum Humidity 60    
Precipitation  
Precipitation 0.05 in 0.10 in 2.23 in (1970)
Month to date precipitation 0.75 1.37  
Year to date precipitation 36.20 37.39  
Snow  
Snow 0.00 in 0.00 in 1.50 in (2004)
Month to date snowfall 8.3 0.1  
Since 1 July snowfall 8.3 0.1  
Snow Depth 0.00 in    
Sea Level Pressure  
Sea Level Pressure 30.25 in    
Wind  
Wind Speed 8 mph (NW)    
Max Wind Speed 18 mph    
Max Gust Speed 25 mph    
Visibility 10 miles    
Events Rain    
T = Trace of Precipitation, MM = Missing Value Source: NWS Daily Summary

Daily Weather History Graph

Daily Weather History Graph

Search for Another Location

Airport:

Trip Planner

Search our weather history database for the weather conditions in past years. The results will help you decide how hot, cold, wet, or windy it might be!

Date:

Astronomy

Nov. 13, 2012 Rise Set
Actual Time 6:38 AM EST 4:34 PM EST
Civil Twilight 6:09 AM EST 5:04 PM EST
Nautical Twilight 5:35 AM EST 5:37 PM EST
Astronomical Twilight 5:03 AM EST 6:09 PM EST
Moon 6:13 AM EST (11/13) 4:25 PM EST (11/13)
Length of Visible Light 10h 55m
Length of Day
9h 56m
Waning Crescent, 0% of the Moon is Illuminated
Nov 13
Waning Crescent
Nov 13
New
Nov 20
First Quarter
Nov 28
Full
Dec 6
Last Quarter

Hourly Weather History & Observations

Time (EST) Temp. Windchill Dew Point Humidity Pressure Visibility Wind Dir Wind Speed Gust Speed Precip Events Conditions
12:19 AM 59.0 °F - 57.2 °F 94% 30.20 in 10.0 mi Calm Calm - N/A   Mostly Cloudy
12:48 AM 57.2 °F - 55.4 °F 94% 30.19 in 9.0 mi WSW 4.6 mph - N/A   Mostly Cloudy
12:52 AM 59.0 °F - 57.0 °F 93% 30.19 in 10.0 mi SW 5.8 mph - N/A   Mostly Cloudy
1:12 AM 60.8 °F - 57.2 °F 88% 30.18 in 10.0 mi SSW 10.4 mph - N/A   Overcast
1:52 AM 59.0 °F - 57.9 °F 96% 30.17 in 9.0 mi South 8.1 mph - N/A   Overcast
2:52 AM 60.1 °F - 57.9 °F 93% 30.16 in 10.0 mi SSW 9.2 mph - N/A   Overcast
3:26 AM 60.8 °F - 57.2 °F 88% 30.14 in 10.0 mi South 9.2 mph - N/A   Overcast
3:45 AM 59.0 °F - 57.2 °F 94% 30.14 in 10.0 mi SSW 9.2 mph - N/A   Overcast
3:52 AM 59.0 °F - 57.0 °F 93% 30.14 in 10.0 mi SSW 9.2 mph - N/A   Overcast
4:03 AM 59.0 °F - 57.2 °F 94% 30.13 in 10.0 mi SSW 9.2 mph - N/A   Overcast
4:38 AM 60.8 °F - 57.2 °F 88% 30.13 in 10.0 mi SW 10.4 mph - N/A   Overcast
4:52 AM 57.9 °F - 57.0 °F 97% 30.14 in 9.0 mi WNW 5.8 mph - N/A   Overcast
5:12 AM 60.8 °F - 57.2 °F 88% 30.14 in 10.0 mi West 6.9 mph 18.4 mph N/A   Overcast
5:44 AM 57.2 °F - 51.8 °F 82% 30.15 in 10.0 mi WNW 13.8 mph - N/A   Overcast
5:52 AM 57.0 °F - 51.1 °F 81% 30.15 in 10.0 mi NW 17.3 mph - 0.00 in Rain Light Rain
6:52 AM 54.0 °F - 46.9 °F 77% 30.17 in 10.0 mi NNW 15.0 mph 20.7 mph 0.00 in   Overcast
7:22 AM 51.8 °F - 46.4 °F 82% 30.20 in 10.0 mi NNW 11.5 mph 20.7 mph 0.00 in   Overcast
7:52 AM 52.0 °F - 46.9 °F 83% 30.23 in 10.0 mi NW 8.1 mph - 0.00 in   Overcast
8:52 AM 50.0 °F - 44.1 °F 80% 30.27 in 10.0 mi NNW 8.1 mph 18.4 mph 0.00 in Rain Light Rain
9:44 AM 50.0 °F - 44.6 °F 82% 30.27 in 10.0 mi NNW 9.2 mph - 0.00 in   Overcast
9:52 AM 50.0 °F - 43.0 °F 77% 30.27 in 10.0 mi NNW 9.2 mph - 0.00 in   Overcast
10:52 AM 50.0 °F - 42.1 °F 74% 30.26 in 10.0 mi NNW 5.8 mph - N/A   Overcast
11:52 AM 48.9 °F - 41.0 °F 74% 30.27 in 10.0 mi NNW 10.4 mph - 0.00 in   Overcast
12:01 PM 48.2 °F - 41.0 °F 76% 30.28 in 10.0 mi NW 17.3 mph 24.2 mph 0.00 in Rain Light Rain
12:30 PM 46.4 °F 40.4 °F 39.2 °F 76% 30.28 in 10.0 mi NNW 13.8 mph - 0.00 in   Overcast
12:52 PM 46.0 °F 41.9 °F 39.9 °F 79% 30.30 in 10.0 mi NNW 8.1 mph - 0.00 in Rain Light Rain
1:52 PM 45.0 °F 40.1 °F 39.0 °F 80% 30.29 in 5.0 mi North 9.2 mph - 0.02 in Rain Rain
2:52 PM 46.0 °F 43.9 °F 39.9 °F 79% 30.30 in 10.0 mi NNW 4.6 mph - 0.03 in Rain Light Rain
3:52 PM 46.0 °F 41.9 °F 36.0 °F 68% 30.32 in 10.0 mi NNW 8.1 mph - 0.00 in   Clear
4:52 PM 46.0 °F 41.9 °F 34.0 °F 63% 30.34 in 10.0 mi North 8.1 mph - N/A   Clear
5:52 PM 44.1 °F 39.5 °F 32.0 °F 63% 30.36 in 10.0 mi NNW 8.1 mph - N/A   Clear
6:52 PM 42.1 °F 38.4 °F 30.9 °F 65% 30.38 in 10.0 mi NW 5.8 mph - N/A   Clear
7:52 PM 41.0 °F 37.1 °F 30.9 °F 67% 30.40 in 10.0 mi NW 5.8 mph - N/A   Clear
8:52 PM 39.9 °F 35.1 °F 30.0 °F 68% 30.42 in 10.0 mi NW 6.9 mph - N/A   Clear
9:52 PM 39.0 °F 34.8 °F 28.9 °F 67% 30.43 in 10.0 mi NW 5.8 mph - N/A   Clear
10:52 PM 37.9 °F 33.5 °F 28.9 °F 70% 30.44 in 10.0 mi NNW 5.8 mph - N/A   Clear
11:52 PM 37.9 °F 33.5 °F 28.0 °F 68% 30.44 in 10.0 mi NNW 5.8 mph - N/A   Clear